This is the latest recevied weather packets stored in our database for station/object PA3CPS. If no packets are shown the sender has not sent any weather packets the latest 10 day(s).
| Time | Temp. | Humidity | Pressure | Rain* | Wind** | Luminosity | Snow |
|---|---|---|---|---|---|---|---|
| 1777641107 | 23.33° C | 32% | 1023.2 hPa | 0 mm | - | 814 W/m² | - |
| 1777640807 | 23.89° C | 30% | 1023.3 hPa | 0 mm | - | 722 W/m² | - |
| 1777640507 | 23.89° C | 31% | 1023.4 hPa | 0 mm | - | 824 W/m² | - |
| 1777640205 | 23.33° C | 31% | 1023.5 hPa | 0 mm | - | 830 W/m² | - |
| 1777639904 | 23.89° C | 32% | 1023.4 hPa | 0 mm | - | 831 W/m² | - |
| 1777639602 | 23.89° C | 32% | 1023.5 hPa | 0 mm | - | 838 W/m² | - |
| 1777639299 | 23.89° C | 30% | 1023.5 hPa | 0 mm | - | 846 W/m² | - |
| 1777638999 | 23.33° C | 29% | 1023.7 hPa | 0 mm | - | 853 W/m² | - |
| 1777638697 | 23.89° C | 31% | 1023.7 hPa | 0 mm | - | 851 W/m² | - |
| 1777638395 | 23.33° C | 31% | 1023.8 hPa | 0 mm | - | 854 W/m² | - |
| 1777638093 | 23.33° C | 33% | 1023.8 hPa | 0 mm | - | 860 W/m² | - |
| 1777637793 | 23.33° C | 34% | 1023.9 hPa | 0 mm | - | 861 W/m² | - |
| 1777637493 | 23.33° C | 33% | 1024 hPa | 0 mm | - | 865 W/m² | - |
| 1777637194 | 23.33° C | 34% | 1024 hPa | 0 mm | - | 868 W/m² | - |
| 1777636891 | 23.33° C | 33% | 1024.1 hPa | 0 mm | - | 865 W/m² | - |
| 1777636588 | 23.33° C | 32% | 1024.2 hPa | 0 mm | - | 870 W/m² | - |
| 1777636288 | 22.78° C | 33% | 1024.1 hPa | 0 mm | - | 872 W/m² | - |
| 1777635988 | 22.78° C | 33% | 1024.3 hPa | 0 mm | - | 874 W/m² | - |
| 1777635682 | 22.78° C | 34% | 1024.3 hPa | 0 mm | - | 872 W/m² | - |
| 1777635380 | 22.78° C | 32% | 1024.4 hPa | 0 mm | - | 872 W/m² | - |
| 1777635078 | 22.78° C | 33% | 1024.5 hPa | 0 mm | - | 872 W/m² | - |
| 1777634779 | 22.22° C | 33% | 1024.5 hPa | 0 mm | - | 872 W/m² | - |
| 1777634474 | 22.22° C | 32% | 1024.4 hPa | 0 mm | - | 872 W/m² | - |
| 1777634176 | 22.78° C | 32% | 1024.5 hPa | 0 mm | - | 870 W/m² | - |
| 1777633870 | 22.22° C | 34% | 1024.5 hPa | 0 mm | - | 807 W/m² | - |
* Rain latest hour (hover to see other rain measurements)
** Current wind speed in m/s (hover to see current wind gust speed)